METAR Formatted Surface Weather Observation
Issued by NWS

Home | Current Version | Previous Version | Text Only | Print | Product List | Glossary On
Versions: 1 2 3 4 5 6 7 8 9 10 11 12 13 14 15 16 17 18 19 20 21
000
SAUS45 KFGZ 312350 COR
MTRRQE
SPECI KRQE 312342Z AUTO 36004KT 10SM -RA OVC085 19/11 A3031 RMK AO2
WSHFT 2322 RAE02B39 P0000 T01890111 TSNO



USA.gov is the U.S. government's official web portal to all federal, state and local government web resources and services.